Location: C.E.K. Mees Observatory
(42.7003°N, 77.4088°W)
Time: 17:32:28
(UTC-05:00)

N. Korean satellite - Pass Details

Date: 12 October 2017
Orbit: 461 x 513 km, 97.2° (Epoch: 17 December)

Event Time Altitude Azimuth Distance (km) Brightness Sun altitude
Rises 20:11:49 0° 207° (SSW) 2,552 10.5 -19.2°
Reaches altitude 10° 20:14:38 10° 232° (SW) 1,665 9.9 -19.7°
Maximum altitude 20:16:43 15° 267° (W) 1,388 9.9 -20.1°
Drops below altitude 10° 20:18:48 10° 304° (WNW) 1,656 10.2 -20.4°
Sets 20:21:36 0° 328° (NNW) 2,529 10.8 -20.9°
